Location: Stoke Bliss
(52.2667°N, 2.5167°W)
Time: 01:59:41
(UTC+00:00)

Cosmos 1992 Rocket - Pass Details

Date: 03 March 2021
Orbit: 759 x 765 km, 74.0° (Epoch: 11 April)

Event Time Altitude Azimuth Distance (km) Brightness Sun altitude
Rises 19:29:25 0° 206° (SSW) 3,220 7.4 -15.4°
Reaches altitude 10° 19:31:47 10° 207° (SSW) 2,297 6.7 -15.8°
Maximum altitude 19:37:01 83° 294° (WNW) 777 4.0 -16.6°
Drops below altitude 10° 19:42:16 10° 24° (NNE) 2,310 6.4 -17.4°
Sets 19:44:39 0° 26° (NNE) 3,239 7.1 -17.7°
